This is the latest recevied weather packets stored in our database for station/object AE5EW. If no packets are shown the sender has not sent any weather packets the latest 10 day(s).
| Time | Temp. | Humidity | Pressure | Rain* | Wind** | Luminosity | Snow |
|---|---|---|---|---|---|---|---|
| 1787586897 | 32.22° C | 65% | 1017.9 hPa | 0 mm | - | - | - |
| 1787586593 | 33.33° C | 66% | 1018 hPa | 0 mm | - | - | - |
| 1787586293 | 32.78° C | 66% | 1018.1 hPa | 0 mm | - | - | - |
| 1787585990 | 32.78° C | 66% | 1018.2 hPa | 0 mm | - | - | - |
| 1787585690 | 32.22° C | 68% | 1017.9 hPa | 0 mm | - | - | - |
| 1787585384 | 32.22° C | 65% | 1017.9 hPa | 0 mm | - | - | - |
| 1787585079 | 31.67° C | 71% | 1017.8 hPa | 0 mm | - | - | - |
| 1787584774 | 32.22° C | 67% | 1017.8 hPa | 0 mm | - | - | - |
| 1787584473 | 31.67° C | 68% | 1017.7 hPa | 0 mm | - | - | - |
| 1787584173 | 31.67° C | 70% | 1017.6 hPa | 0 mm | - | - | - |
| 1787583873 | 31.67° C | 68% | 1017.8 hPa | 0 mm | - | - | - |
| 1787583567 | 32.22° C | 71% | 1017.7 hPa | 0 mm | - | - | - |
| 1787583266 | 31.67° C | 71% | 1017.7 hPa | 0 mm | - | - | - |
| 1787582962 | 31.67° C | 71% | 1017.8 hPa | 0 mm | - | - | - |
| 1787582662 | 31.67° C | 71% | 1017.8 hPa | 0 mm | - | - | - |
| 1787582359 | 31.11° C | 72% | 1017.8 hPa | 0 mm | - | - | - |
| 1787582058 | 30.56° C | 74% | 1017.8 hPa | 0 mm | - | - | - |
| 1787581753 | 30° C | 76% | 1017.6 hPa | 0 mm | - | - | - |
| 1787581448 | 30.56° C | 73% | 1017.5 hPa | 0 mm | - | - | - |
| 1787581148 | 29.44° C | 77% | 1017.9 hPa | 0 mm | - | - | - |
| 1787580843 | 29.44° C | 78% | 1018 hPa | 0 mm | - | - | - |
| 1787580540 | 28.89° C | 79% | 1017.8 hPa | 0 mm | - | - | - |
| 1787580239 | 28.89° C | 79% | 1018.1 hPa | 0 mm | - | - | - |
| 1787579934 | 28.89° C | 81% | 1018.2 hPa | 0 mm | - | - | - |
| 1787579629 | 28.33° C | 82% | 1018 hPa | 0 mm | - | - | - |
* Rain latest hour (hover to see other rain measurements)
** Current wind speed in m/s (hover to see current wind gust speed)